Залещики

Украина / Тернопольская область     48˚40′45″N   25˚46′16″E
темп.,
°C
ветер,
м/с
пор.,
м/с
влажн.,
%
обл.,
%
осадки,
мм/ч
давл.,
гПа
погр.,
м
5 декабря, сб
сб523:00+6˚юв919900 0.0 1017589
02:00+7˚юв8179036 0.0 1018636
05:00+7˚юв9179077 0.0 1017666
08:00+8˚юв9168886 0.0 1018752
11:00+8˚юв9158493 0.0 1019788
14:00+9˚юв9158196 0.0 1019796
17:00+8˚юв9168392 0.0 1020757
20:00+7˚юв9158395 0.0 1021760
6 декабря, вс
вс623:00+6˚юв91584100 0.0 1022771
02:00+4˚юв91485100 0.0 1023622
05:00+4˚юв91586100 0.0 1023625
08:00+3˚юв91584100 0.0 1023767
11:00+3˚юв101581100 0.0 1023858
14:00+3˚юв9147799 0.0 1022774
17:00+2˚юв10157598 0.0 1022763
20:00+1˚юв10167599 0.0 1023795
7 декабря, пн
пн723:00−1˚юв10176693 0.0 1023707
02:00−2˚юв10186354 0.0 1023687
05:00−2˚юв1017625 0.0 1022678
08:00−3˚юв1017669 0.0 1021682
11:00−2˚юв10156676 0.0 1021763
14:00−2˚юв10156377 0.0 1019775
17:00−3˚вюв9157061 0.0 1019761
20:00−3˚юв10167880 0.0 1019892
8 декабря, вт
вт823:00−3˚юв10168499 0.1 1019790
02:00−2˚юв91693100 1.3 1018732
05:00−1˚юв81593100 0.2 1018694
08:00−1˚вюв71395100 1.0 1018582
11:00−2˚вюв71293100 1.6 1019526
14:00−2˚вюв71289100 1.9 1018544
17:00−2˚вюв71192100 0.0 1018561
20:00−1˚вюв61192100 0.0 1019415
9 декабря, ср
ср923:00вюв61196100 0.0 1018445
02:00вюв61196100 0.0 1018404
05:00+1˚вюв71397100 0.0 1017460
08:00+1˚вюв71397100 0.0 1017450
11:00+2˚юв81595100 0.0 1017529
14:00+3˚юв91596100 0.0 1015653
17:00+3˚юв91796100 0.0 1014568
20:00+3˚вюв91896100 0.1 1014611